Weather History for Erzurum, Turkey

Change the Weather History Date:

Thursday, October 31, 2013

  Actual Average Record
Temperature  
Mean Temperature 42 °F -  
Max Temperature 61 °F 44 °F 63 °F (2012)
Min Temperature 22 °F 27 °F 5 °F (2003)
Degree Days  
Heating Degree Days 24    
Moisture  
Dew Point 22 °F    
Average Humidity 53    
Maximum Humidity 86    
Minimum Humidity 13    
Precipitation  
Precipitation 0.00 in 0.05 in - ()
Sea Level Pressure  
Sea Level Pressure 30.27 in    
Wind  
Wind Speed 3 mph ()    
Max Wind Speed 15 mph    
Max Gust Speed -    
Visibility 7.8 miles    
Events      
Averages and records for this station are not official NWS values.
T = Trace of Precipitation, MM = Missing Value Source: Averaged Metar Reports

Daily Weather History Graph

Daily Weather History Graph

Search for Another Location

Airport:

Trip Planner

Search our weather history database for the weather conditions in past years. The results will help you decide how hot, cold, wet, or windy it might be!

Date:

Astronomy

Oct. 31, 2013 Rise Set
Actual Time 5:43 AM EET 4:14 PM EET
Civil Twilight 5:15 AM EET 4:42 PM EET
Nautical Twilight 4:43 AM EET 5:14 PM EET
Astronomical Twilight 4:11 AM EET 5:45 PM EET
Moon 2:10 AM EET 2:20 PM EET
Length of Visible Light 11h 27m
Length of Day
10h 31m
Waning Crescent, 12% of the Moon is Illuminated
Oct 31
Waning Crescent
Nov 3
New
Nov 10
First Quarter
Nov 17
Full
Nov 25
Last Quarter

Hourly Weather History & Observations

Time (EET) Temp. Windchill Dew Point Humidity Pressure Visibility Wind Dir Wind Speed Gust Speed Precip Events Conditions
12:20 AM 30.2 °F - 21.2 °F 69% 30.27 in - Variable 1.2 mph - N/A   Clear
12:50 AM 28.4 °F - 21.2 °F 74% 30.27 in - Calm Calm - N/A   Clear
1:20 AM 28.4 °F - 23.0 °F 80% 30.27 in - Calm Calm - N/A   Clear
1:50 AM 26.6 °F - 21.2 °F 80% 30.27 in - Calm Calm - N/A   Clear
2:00 AM 26 °F - 22 °F 81%  in 12 mi Calm Calm - -  
2:20 AM 26.6 °F - 23.0 °F 86% 30.27 in - Calm Calm - N/A   Clear
2:50 AM 26.6 °F - 21.2 °F 80% 30.27 in - Variable 2.3 mph - N/A   Clear
3:20 AM 26.6 °F - 21.2 °F 80% 30.27 in - Calm Calm - N/A   Clear
3:50 AM 24.8 °F - 19.4 °F 80% 30.27 in - Variable 2.3 mph - N/A   Clear
4:20 AM 24.8 °F - 19.4 °F 80% 30.27 in - WSW 2.3 mph - N/A   Clear
4:50 AM 24.8 °F - 19.4 °F 80% 30.30 in - Variable 2.3 mph - N/A   Clear
5:20 AM 24.8 °F 20.5 °F 21.2 °F 86% 30.30 in - WSW 3.5 mph - N/A   Clear
5:50 AM 23.0 °F 18.4 °F 19.4 °F 86% 30.30 in - NE 3.5 mph - N/A   Clear
6:20 AM 24.8 °F 20.5 °F 19.4 °F 80% 30.30 in - Variable 3.5 mph - N/A   Clear
6:50 AM 28.4 °F 24.6 °F 23.0 °F 80% 30.30 in - SW 3.5 mph - N/A   Clear
7:20 AM 33.8 °F - 24.8 °F 70% 30.30 in - SW 2.3 mph - N/A   Clear
7:50 AM 39.2 °F - 24.8 °F 56% 30.30 in - Variable 1.2 mph - N/A   Clear
8:00 AM 38 °F - 25 °F 47%  in 12 mi West 1.2 mph - -  
8:20 AM 44.6 °F - 24.8 °F 46% 30.30 in - Variable 1.2 mph - N/A   Clear
8:50 AM 48.2 °F - 24.8 °F 40% 30.30 in - East 10.4 mph - N/A   Clear
9:20 AM 50.0 °F - 23.0 °F 35% 30.30 in - ENE 15.0 mph - N/A   Clear
9:50 AM 51.8 °F - 21.2 °F 30% 30.30 in - NE 11.5 mph - N/A   Clear
10:20 AM 53.6 °F - 23.0 °F 30% 30.30 in - ENE 11.5 mph - N/A   Clear
10:50 AM 53.6 °F - 23.0 °F 30% 30.27 in - ENE 9.2 mph - N/A   Clear
11:20 AM 57.2 °F - 23.0 °F 27% 30.27 in 6.2 mi ENE 5.8 mph - N/A   Partly Cloudy
11:50 AM 57.2 °F - 23.0 °F 27% 30.27 in 6.2 mi NE 5.8 mph - N/A   Partly Cloudy
12:20 PM 59.0 °F - 23.0 °F 25% 30.24 in 6.2 mi Variable 3.5 mph - N/A   Partly Cloudy
12:50 PM 59.0 °F - 23.0 °F 25% 30.24 in 6.2 mi NNE 4.6 mph - N/A   Partly Cloudy
1:20 PM 60.8 °F - 23.0 °F 23% 30.24 in 6.2 mi North 4.6 mph - N/A   Partly Cloudy
1:50 PM 60.8 °F - 23.0 °F 23% 30.24 in 6.2 mi NNE 5.8 mph - N/A   Partly Cloudy
2:00 PM 60 °F - 22 °F 13%  in 12 mi NNE 5.8 mph - -   Scattered Clouds
2:20 PM 60.8 °F - 21.2 °F 22% 30.24 in 6.2 mi Variable 2.3 mph - N/A   Partly Cloudy
2:50 PM 59.0 °F - 21.2 °F 23% 30.24 in 6.2 mi Variable 2.3 mph - N/A   Partly Cloudy
3:20 PM 59.0 °F - 21.2 °F 23% 30.24 in 6.2 mi Variable 1.2 mph - N/A   Partly Cloudy
3:50 PM 57.2 °F - 23.0 °F 27% 30.24 in 6.2 mi East 2.3 mph - N/A   Partly Cloudy
4:20 PM 51.8 °F - 23.0 °F 33% 30.24 in 6.2 mi ESE 3.5 mph - N/A   Partly Cloudy
4:50 PM 46.4 °F 45.2 °F 23.0 °F 40% 30.24 in 6.2 mi SSE 3.5 mph - N/A   Partly Cloudy
5:00 PM 46 °F - 22 °F 26%  in 12 mi SSE 3.5 mph - -   Scattered Clouds
5:20 PM 46.4 °F - 23.0 °F 40% 30.24 in 6.2 mi Variable 2.3 mph - N/A   Partly Cloudy
5:50 PM 46.4 °F 43.5 °F 23.0 °F 40% 30.27 in - WNW 5.8 mph - N/A   Clear
6:20 PM 46.4 °F 43.5 °F 23.0 °F 40% 30.27 in - WSW 5.8 mph - N/A   Clear
6:50 PM 42.8 °F 41.1 °F 23.0 °F 46% 30.27 in - South 3.5 mph - N/A   Clear
7:20 PM 39.2 °F 37.0 °F 23.0 °F 52% 30.27 in - South 3.5 mph - N/A   Clear
7:50 PM 37.4 °F - 23.0 °F 56% 30.27 in - Variable 1.2 mph - N/A   Clear
8:00 PM 38 °F - 22 °F 39%  in 12 mi SSE 1.2 mph - -  
8:20 PM 37.4 °F - 23.0 °F 56% 30.27 in - South 2.3 mph - N/A   Clear
8:50 PM 37.4 °F - 23.0 °F 56% 30.30 in - WSW 2.3 mph - N/A   Clear
9:20 PM 33.8 °F 30.8 °F 23.0 °F 65% 30.30 in - West 3.5 mph - N/A   Clear
9:50 PM 33.8 °F 29.6 °F 21.2 °F 60% 30.30 in - Variable 4.6 mph - N/A   Clear
10:20 PM 32.0 °F - 23.0 °F 69% 30.30 in - Calm Calm - N/A   Clear
10:50 PM 30.2 °F - 23.0 °F 75% 30.30 in - Variable 1.2 mph - N/A   Clear
11:20 PM 26.6 °F - 19.4 °F 74% 30.30 in - Variable 2.3 mph - N/A   Clear
11:50 PM 30.2 °F - 23.0 °F 75% 30.30 in - SW 2.3 mph - N/A   Clear